Meridian, MS

12:52 PM CDT on June 26, 2017 (GMT -0500)
Key

Weather History for KMEI - February, 2013

Change the Weather History Date:

Tuesday, February 5, 2013

  Actual Average Record
Temperature  
Mean Temperature 55 °F 47 °F  
Max Temperature 69 °F 59 °F 81 °F (2008)
Min Temperature 41 °F 35 °F 8 °F (1996)
Degree Days  
Heating Degree Days 10 19  
Month to date heating degree days 90 95  
Since 1 July heating degree days 1523 1732  
Cooling Degree Days 0 0  
Month to date cooling degree days 0 0  
Year to date cooling degree days 16 3  
Growing Degree Days 5 (Base 50)    
Moisture  
Dew Point 50 °F    
Average Humidity 80    
Maximum Humidity 100    
Minimum Humidity 59    
Precipitation  
Precipitation 0.00 in 0.20 in 3.92 in (1994)
Month to date precipitation T 1.03  
Year to date precipitation 9.76 6.16  
Sea Level Pressure  
Sea Level Pressure 30.02 in    
Wind  
Wind Speed 2 mph (WSW)    
Max Wind Speed 9 mph    
Max Gust Speed 12 mph    
Visibility 8 miles    
Events      
T = Trace of Precipitation, MM = Missing Value Source: NWS Daily Summary

Daily Weather History Graph

Daily Weather History Graph

Search for Another Location

Airport or City:

Trip Planner

Search our weather history database for the weather conditions in past years. The results will help you decide how hot, cold, wet, or windy it might be!

Date:

Astronomy

Feb. 05, 2013 Rise Set
Actual Time 6:46 AM CST 5:32 PM CST
Civil Twilight 6:20 AM CST 5:57 PM CST
Nautical Twilight 5:51 AM CST 6:27 PM CST
Astronomical Twilight 5:22 AM CST 6:55 PM CST
Moon 2:21 AM CST (2/5) 12:56 PM CST (2/5)
Length of Visible Light 11h 37m
Length of Day
10h 46m
Waning Crescent, 26% of the Moon is Illuminated
Feb 5
Waning Crescent
Feb 10
New
Feb 17
First Quarter
Feb 25
Full
Mar 4
Last Quarter

Hourly Weather History & Observations

Time (CST) Temp. Windchill Dew Point Humidity Pressure Visibility Wind Dir Wind Speed Gust Speed Precip Events Conditions
12:58 AM 48.0 °F - 42.1 °F 80% 29.97 in 10.0 mi South 4.6 mph - N/A   Overcast
1:58 AM 45.0 °F - 42.1 °F 90% 29.96 in 10.0 mi Calm Calm - N/A   Clear
2:58 AM 44.1 °F 40.8 °F 42.1 °F 93% 29.96 in 10.0 mi South 5.8 mph - N/A   Mostly Cloudy
3:58 AM 45.0 °F 41.8 °F 42.1 °F 90% 29.95 in 10.0 mi SSW 5.8 mph - N/A   Clear
4:58 AM 43.0 °F 40.3 °F 41.0 °F 93% 29.96 in 10.0 mi South 4.6 mph - N/A   Clear
5:58 AM 42.8 °F - 39.2 °F 87% 29.98 in 10.0 mi Calm Calm - N/A   Clear
6:23 AM 42.8 °F - 41.0 °F 93% 29.99 in 10.0 mi Calm Calm - N/A   Mostly Cloudy
6:58 AM 44.1 °F - 43.0 °F 96% 30.01 in 10.0 mi Calm Calm - N/A   Overcast
7:58 AM 48.0 °F - 45.0 °F 89% 30.03 in 10.0 mi SSW 3.5 mph - N/A   Overcast
8:25 AM 50.0 °F - 46.4 °F 87% 30.03 in 10.0 mi SSW 3.5 mph - N/A   Overcast
8:58 AM 53.1 °F - 48.0 °F 83% 30.02 in 10.0 mi SW 3.5 mph - N/A   Overcast
9:58 AM 59.0 °F - 52.0 °F 78% 30.02 in 10.0 mi SSW 8.1 mph - N/A   Overcast
10:58 AM 64.0 °F - 55.0 °F 73% 30.04 in 10.0 mi SSW 4.6 mph - N/A   Overcast
11:40 AM 66.2 °F - 55.4 °F 68% 30.03 in 10.0 mi West 4.6 mph - N/A   Overcast
11:58 AM 66.0 °F - 55.9 °F 70% 30.01 in 10.0 mi Calm Calm - N/A   Mostly Cloudy
12:58 PM 68.0 °F - 54.0 °F 61% 29.99 in 10.0 mi Variable 3.5 mph - N/A   Overcast
1:58 PM 66.0 °F - 55.9 °F 70% 29.99 in 10.0 mi North 6.9 mph - N/A   Overcast
2:58 PM 66.9 °F - 55.9 °F 68% 29.98 in 10.0 mi Calm Calm - N/A   Scattered Clouds
3:58 PM 69.1 °F - 55.9 °F 63% 29.97 in 10.0 mi Calm Calm - N/A   Partly Cloudy
4:58 PM 66.0 °F - 55.9 °F 70% 29.97 in 10.0 mi NW 4.6 mph - N/A   Clear
5:58 PM 59.0 °F - 55.9 °F 90% 29.99 in 10.0 mi NNW 4.6 mph - N/A   Clear
6:28 PM 57.2 °F - 55.4 °F 94% 30.00 in 10.0 mi NNW 5.8 mph - N/A   Mostly Cloudy
6:39 PM 57.2 °F - 55.4 °F 94% 30.01 in 10.0 mi NNW 6.9 mph - N/A   Scattered Clouds
6:58 PM 57.9 °F - 55.0 °F 90% 30.01 in 10.0 mi North 3.5 mph - N/A   Partly Cloudy
7:58 PM 53.1 °F - 53.1 °F 100% 30.03 in 8.0 mi Calm Calm - N/A   Scattered Clouds
8:58 PM 54.0 °F - 52.0 °F 93% 30.05 in 9.0 mi Calm Calm - N/A   Overcast
9:58 PM 53.1 °F - 52.0 °F 96% 30.06 in 7.0 mi Calm Calm - N/A   Mostly Cloudy
10:24 PM 51.8 °F - 51.8 °F 100% 30.06 in 2.0 mi Calm Calm - N/A   Partly Cloudy
10:34 PM 51.8 °F - 51.8 °F 100% 30.06 in 0.8 mi Calm Calm - N/A   Clear
10:42 PM 51.8 °F - 50.0 °F 94% 30.06 in 2.0 mi Calm Calm - N/A   Partly Cloudy
10:58 PM 50.0 °F - 50.0 °F 100% 30.05 in 5.0 mi Calm Calm - N/A   Partly Cloudy
11:17 PM 50.0 °F - 48.2 °F 94% 30.06 in 2.5 mi Calm Calm - N/A   Mostly Cloudy
11:28 PM 48.2 °F - 48.2 °F 100% 30.06 in 1.2 mi Calm Calm - N/A   Mostly Cloudy
11:35 PM 48.2 °F - 48.2 °F 100% 30.06 in 3.0 mi Calm Calm - N/A   Overcast
11:43 PM 48.2 °F - 48.2 °F 100% 30.06 in 2.5 mi Calm Calm - N/A   Mostly Cloudy
11:53 PM 48.2 °F - 48.2 °F 100% 30.06 in 6.0 mi Calm Calm - N/A   Mostly Cloudy
11:58 PM 48.2 °F - 48.2 °F 100% 30.06 in 7.0 mi Calm Calm - N/A   Overcast